Weather in Kurovskoy

Russia / Kaluga Oblast     54°32′34″N   36°00′15″E
temp.,
°C
wind,
m/s
gust,
m/s
humid.,
%
clouds,
%
prec.,
mm/h
press.,
hPa
HPBL,
m
21 april, wed
wed2100:00+2ne4699100 0.1 1010477
03:00+2n3699100 0.4 1007253
06:00+1nw2499100 0.4 1005240
09:00+2w3598100 0.5 1006432
12:00+4wsw4793100 0.1 1007613
15:00+6w4773100 0.2 10091117
18:00+6ssw4780100 0.0 1010409
21:00+5ssw4986100 0.0 1011247
22 april, thu
thu2200:00+4ssw4108898 0.0 1012322
03:00+4ssw5119424 0.1 1013348
06:00+3s51395100 0.0 1014361
09:00+8ssw6982100 0.3 1015612
12:00+11ssw787346 0.0 1015888
15:00+13s6864100 0.3 10141486
18:00+12s6107597 1.0 1014778
21:00+9s5128891 1.6 1014355
23 april, fri
fri2300:00+7s5129266 0.4 1014296
03:00+7s6149094 0.4 1014374
06:00+6s5139189 0.1 1014361
09:00+11s7137733 0.4 1014777
12:00+14ssw8146590 0.6 10131758
15:00+9wsw5786100 2.6 1014521
18:00+6nw359498 4.6 1014335
21:00+6nnw2394100 6.0 1012196
24 april, sat
sat2400:00+5nw2495100 5.7 1010257
03:00+3nw5697100 12.4 1009481
06:00+2nw4999100 4.9 1008419
09:00+2nw41199100 10.1 1008512
12:00+5nw61077100 2.6 10081258
15:00+8wnw6955100 2.9 10071889
18:00+7w710615 0.4 1007877
21:00+3w5117654 0.6 1009309
25 april, sun
sun2500:00+1wsw511865 0.0 1009391
03:00+1wsw51290100 0.0 1009425
06:00+1wsw6108897 0.0 1009651
09:00+3wsw7107480 0.0 10101076
12:00+7wsw81151100 0.1 10092292
15:00+8wsw8114598 0.3 10092389
18:00+6wsw696232 0.2 10101391
21:00+2sw49815 0.3 1011236